EN

Hourly Weather Trunovo

Today, 19 April, Monday

Time Temperature Precipitation Wind Pressure Humidity
00:00 +6°C° 0 mm 4 mps 753 mmHg 75%
01:00 +5°C° 0 mm 4 mps 754 mmHg 80%
02:00 +5°C° 0 mm 4 mps 754 mmHg 83%
03:00 +5°C° 0 mm 4 mps 754 mmHg 86%
04:00 +4°C° 0 mm 4 mps 754 mmHg 89%
05:00 +4°C° 0 mm 3 mps 754 mmHg 91%
06:00 +4°C° 0 mm 4 mps 754 mmHg 87%
07:00 +5°C° 0 mm 4 mps 754 mmHg 83%
08:00 +5°C° 0 mm 5 mps 754 mmHg 78%
09:00 +6°C° 0 mm 5 mps 754 mmHg 73%
10:00 +7°C° 0 mm 5 mps 754 mmHg 67%
11:00 +8°C° 0 mm 5 mps 754 mmHg 61%
12:00 +8°C° 0 mm 5 mps 754 mmHg 60%
13:00 +8°C° 0 mm 5 mps 754 mmHg 58%
14:00 +8°C° 0 mm 5 mps 754 mmHg 56%
15:00 +8°C° 0 mm 5 mps 754 mmHg 57%
16:00 +8°C° 0 mm 4 mps 754 mmHg 58%
17:00 +7°C° 0 mm 4 mps 754 mmHg 59%
18:00 +7°C° 0 mm 4 mps 754 mmHg 60%
19:00 +6°C° 0 mm 4 mps 754 mmHg 61%
20:00 +5°C° 0 mm 4 mps 754 mmHg 63%
21:00 +5°C° 0 mm 4 mps 754 mmHg 62%
22:00 +4°C° 0 mm 4 mps 754 mmHg 61%
23:00 +4°C° 0 mm 4 mps 754 mmHg 61%

Tomorrow, 20 April, Tuesday

Time Temperature Precipitation Wind Pressure Humidity
00:00 +3°C° 0 mm 4 mps 753 mmHg 61%
01:00 +3°C° 0 mm 4 mps 753 mmHg 62%
02:00 +1°C° 0 mm 4 mps 753 mmHg 62%
03:00 +1°C° 0 mm 4 mps 753 mmHg 64%
04:00 +1°C° 0 mm 4 mps 753 mmHg 66%
05:00 0°C° 0 mm 4 mps 752 mmHg 67%
06:00 +1°C° 0 mm 4 mps 752 mmHg 66%
07:00 +1°C° 0 mm 5 mps 752 mmHg 64%
08:00 +2°C° 0 mm 5 mps 752 mmHg 62%
09:00 +3°C° 0 mm 5 mps 752 mmHg 64%
10:00 +3°C° 0 mm 5 mps 751 mmHg 66%
11:00 +5°C° 0 mm 5 mps 751 mmHg 68%
12:00 +4°C° 0 mm 6 mps 751 mmHg 66%
13:00 +4°C° 0 mm 6 mps 750 mmHg 64%
14:00 +5°C° 0 mm 6 mps 750 mmHg 63%
15:00 +5°C° 0.1 mm 5 mps 749 mmHg 73%
16:00 +2°C° 0.1 mm 5 mps 749 mmHg 84%
17:00 +1°C° 0.1 mm 4 mps 748 mmHg 95%
18:00 +1°C° 0.3 mm 4 mps 748 mmHg 95%
19:00 +1°C° 0.3 mm 4 mps 747 mmHg 96%
20:00 0°C° 0.3 mm 4 mps 747 mmHg 96%
21:00 +1°C° 0.7 mm 4 mps 746 mmHg 96%
22:00 +1°C° 0.7 mm 4 mps 745 mmHg 96%
23:00 +1°C° 0.7 mm 4 mps 744 mmHg 96%

Day after tomorrow, 21 April, Wednesday

Time Temperature Precipitation Wind Pressure Humidity
00:00 +1°C° 1 mm 4 mps 743 mmHg 96%
01:00 0°C° 1 mm 4 mps 742 mmHg 96%
02:00 0°C° 1 mm 4 mps 740 mmHg 96%
03:00 0°C° 0.8 mm 4 mps 740 mmHg 97%
04:00 -1°C° 0.8 mm 4 mps 739 mmHg 97%
05:00 0°C° 0.8 mm 3 mps 738 mmHg 97%
06:00 0°C° 0.7 mm 3 mps 738 mmHg 97%
07:00 0°C° 0.7 mm 3 mps 737 mmHg 98%
08:00 +1°C° 0.7 mm 2 mps 737 mmHg 99%
09:00 +2°C° 0.4 mm 2 mps 736 mmHg 98%
10:00 +2°C° 0.4 mm 2 mps 736 mmHg 98%
11:00 +3°C° 0.4 mm 1 mps 736 mmHg 98%
12:00 +2°C° 0.1 mm 2 mps 736 mmHg 96%
13:00 +2°C° 0.1 mm 3 mps 737 mmHg 95%
14:00 +1°C° 0.1 mm 4 mps 737 mmHg 94%
15:00 +1°C° 0 mm 4 mps 738 mmHg 91%
16:00 +1°C° 0 mm 4 mps 738 mmHg 89%
17:00 +3°C° 0 mm 4 mps 739 mmHg 87%
18:00 +3°C° 0 mm 4 mps 739 mmHg 88%
19:00 +3°C° 0 mm 4 mps 740 mmHg 89%
20:00 +3°C° 0 mm 4 mps 741 mmHg 91%
21:00 +1°C° 0 mm 4 mps 741 mmHg 91%
22:00 +1°C° 0 mm 4 mps 741 mmHg 92%
23:00 +1°C° 0 mm 4 mps 742 mmHg 93%

22 April, Thursday

Time Temperature Precipitation Wind Pressure Humidity
00:00 +2°C° 0 mm 3 mps 742 mmHg 93%
01:00 +2°C° 0 mm 3 mps 742 mmHg 93%
02:00 +2°C° 0 mm 3 mps 742 mmHg 93%
03:00 +2°C° 0 mm 3 mps 743 mmHg 93%
04:00 +2°C° 0 mm 3 mps 743 mmHg 93%
05:00 +1°C° 0 mm 3 mps 743 mmHg 93%
06:00 +2°C° 0 mm 3 mps 744 mmHg 89%
07:00 +3°C° 0 mm 4 mps 744 mmHg 85%
08:00 +4°C° 0 mm 4 mps 744 mmHg 81%
09:00 +6°C° 0 mm 4 mps 745 mmHg 75%
10:00 +7°C° 0 mm 4 mps 745 mmHg 69%
11:00 +10°C° 0 mm 4 mps 745 mmHg 62%
12:00 +11°C° 0 mm 4 mps 745 mmHg 59%
13:00 +12°C° 0 mm 4 mps 745 mmHg 55%
14:00 +13°C° 0 mm 4 mps 745 mmHg 51%
15:00 +12°C° 0.1 mm 4 mps 745 mmHg 57%
16:00 +12°C° 0.1 mm 3 mps 746 mmHg 64%
17:00 +11°C° 0.1 mm 3 mps 746 mmHg 71%
18:00 +10°C° 0 mm 3 mps 746 mmHg 78%
19:00 +8°C° 0 mm 3 mps 746 mmHg 85%
20:00 +7°C° 0 mm 2 mps 746 mmHg 92%
21:00 +7°C° 0 mm 2 mps 746 mmHg 93%
22:00 +6°C° 0 mm 2 mps 746 mmHg 93%
23:00 +6°C° 0 mm 2 mps 746 mmHg 94%

23 April, Friday

Time Temperature Precipitation Wind Pressure Humidity
00:00 +6°C° 0 mm 2 mps 746 mmHg 94%
01:00 +6°C° 0 mm 2 mps 746 mmHg 95%
02:00 +5°C° 0 mm 2 mps 746 mmHg 95%
03:00 +5°C° 0 mm 2 mps 746 mmHg 95%
04:00 +5°C° 0 mm 2 mps 746 mmHg 96%
05:00 +5°C° 0 mm 2 mps 746 mmHg 96%
06:00 +7°C° 0 mm 3 mps 745 mmHg 89%
07:00 +8°C° 0 mm 4 mps 745 mmHg 83%
08:00 +10°C° 0 mm 5 mps 745 mmHg 76%
09:00 +12°C° 0.2 mm 5 mps 745 mmHg 72%
10:00 +13°C° 0.2 mm 6 mps 745 mmHg 68%
11:00 +14°C° 0.2 mm 6 mps 744 mmHg 64%
12:00 +14°C° 0.4 mm 6 mps 744 mmHg 63%
13:00 +15°C° 0.4 mm 6 mps 743 mmHg 63%
14:00 +15°C° 0.4 mm 6 mps 743 mmHg 62%
15:00 +15°C° 0.3 mm 6 mps 743 mmHg 64%
16:00 +14°C° 0.3 mm 6 mps 742 mmHg 66%
17:00 +13°C° 0.3 mm 6 mps 742 mmHg 68%
18:00 +11°C° 0.8 mm 6 mps 742 mmHg 75%
19:00 +9°C° 0.8 mm 5 mps 742 mmHg 81%
20:00 +7°C° 0.8 mm 4 mps 742 mmHg 88%
21:00 +7°C° 0.5 mm 4 mps 742 mmHg 89%
22:00 +7°C° 0.5 mm 3 mps 742 mmHg 89%
23:00 +5°C° 0.5 mm 3 mps 742 mmHg 90%

24 April, Saturday

Time Temperature Precipitation Wind Pressure Humidity
00:00 +4°C° 0.2 mm 3 mps 742 mmHg 89%
01:00 +4°C° 0.2 mm 3 mps 742 mmHg 88%
02:00 +5°C° 0.2 mm 2 mps 742 mmHg 88%
03:00 +4°C° 0 mm 2 mps 742 mmHg 89%
04:00 +4°C° 0 mm 2 mps 742 mmHg 90%
05:00 +4°C° 0 mm 2 mps 742 mmHg 91%
06:00 +5°C° 0 mm 2 mps 742 mmHg 85%
07:00 +4°C° 0 mm 3 mps 742 mmHg 80%
08:00 +5°C° 0 mm 3 mps 742 mmHg 75%
09:00 +7°C° 0.2 mm 3 mps 741 mmHg 68%
10:00 +7°C° 0.2 mm 4 mps 741 mmHg 61%
11:00 +8°C° 0.2 mm 4 mps 741 mmHg 55%
12:00 +7°C° 0.3 mm 5 mps 741 mmHg 58%
13:00 +7°C° 0.3 mm 5 mps 741 mmHg 62%
14:00 +6°C° 0.3 mm 5 mps 741 mmHg 66%
15:00 +6°C° 0.1 mm 5 mps 741 mmHg 65%
16:00 +5°C° 0.1 mm 5 mps 741 mmHg 65%
17:00 +5°C° 0.1 mm 5 mps 741 mmHg 64%
18:00 +3°C° 0.1 mm 5 mps 741 mmHg 74%
19:00 +2°C° 0.1 mm 5 mps 742 mmHg 83%
20:00 0°C° 0.1 mm 5 mps 742 mmHg 92%
21:00 0°C° 0 mm 5 mps 743 mmHg 90%
22:00 0°C° 0 mm 4 mps 743 mmHg 87%
23:00 -1°C° 0 mm 4 mps 743 mmHg 85%
Show more

We Need Your Consent

Meteoprog and our Service Providers may store and access personal data such as cookies, device identifiers or other similar technologies on your device and process such data to personalise content and ads, as well as provide social media features and to analyse the traffic.

  • Store and/or access information on your device

    Cookies, device identifiers or other information can be stored or accessed on your device for the purposes indicated above.

  • Personalised ads and content, ad and content measurement, audience insights, and products development

    Ads and content can be personalised based on a profile. More data can be added to better personalise ads and content. Ad and content performance can be measured. Insights about the audience who saw the ads and content can be derived. Such data can be used to develop or improve user’s experience, systems and software.

By clicking ‘I Agree’ you will allow the use of indicated cookies, device identifiers, web beacons or other similar technologies. Your settings can be changed in the browser on your device.

For certain purposes, legitimate interests may be relied on, rather than consent. You can read more about this in our Privacy and Cookie Policy.